Weather home | Your neighborhood | Marine | Radar | Hurricane | Almanac

Daily weather history


Statistical History for Monday, March 20, 2017

St. Petersburg Airport, FL


  Actual Average Record
Temperature
Mean Temperature -  
Max Temperature 76 °F 86 °F (2003)
Min Temperature 60 °F 48 °F (1956)
Degree Days
Heating Degree Days    
Growing Degree Days 12 (Base - )  
Moisture
Dew Point   
Average Humidity    
Maximum Humidity    
Minimum Humidity    
Precipitation
Precipitation - - ()
Wind
Wind Speed   
Max Wind Speed   
Max Gust Speed   
Visibility   
Events   
Averages and records for this station are not official NWS values.
Key: T is trace of precipitation, MM is missing value
Source: NWS Daily Summary
Seasonal Weather Averages
Time(EDT)TemperatureDew PointHumidity Sea Level Pressure Visibility Wind DirectionWind SpeedGust SpeedPrecipitationEventsConditions
12:53 AM 61.0 °F 48.9 °F 64% 30.22 in 10.0 miles ENE 11.5 mph - N/A   Clear
1:53 AM 60.1 °F 46.9 °F 62% 30.22 in 10.0 miles East 6.9 mph - N/A   Clear
2:53 AM 57.9 °F 48.0 °F 70% 30.20 in 10.0 miles East 5.8 mph - N/A   Clear
3:53 AM 55.9 °F 48.0 °F 75% 30.19 in 10.0 miles East 4.6 mph - N/A   Clear
4:53 AM 55.9 °F 48.0 °F 75% 30.18 in 10.0 miles East 4.6 mph - N/A   Clear
5:53 AM 55.9 °F 48.9 °F 77% 30.18 in 10.0 miles ENE 4.6 mph - N/A   Clear
6:53 AM 52.0 °F 48.0 °F 86% 30.19 in 10.0 miles East 3.5 mph - N/A   Clear
7:53 AM 54.0 °F 48.0 °F 80% 30.21 in 10.0 miles NE 3.5 mph - N/A   Clear
8:53 AM 60.1 °F 50.0 °F 69% 30.23 in 10.0 miles NE 3.5 mph - N/A   Clear
9:53 AM 62.1 °F 50.0 °F 65% 30.24 in 10.0 miles ENE 4.6 mph - N/A   Clear
10:53 AM 64.0 °F 48.9 °F 58% 30.24 in 10.0 miles NNE 5.8 mph - N/A   Clear
11:53 AM 68.0 °F 42.1 °F 39% 30.24 in 10.0 miles ENE 5.8 mph - N/A   Clear
12:53 PM 71.1 °F 37.9 °F 30% 30.23 in 10.0 miles Variable 3.5 mph - N/A   Clear
1:53 PM 73.9 °F 37.0 °F 26% 30.21 in 10.0 miles NNE 4.6 mph - N/A   Clear
2:53 PM 73.9 °F 45.0 °F 35% 30.19 in 10.0 miles NNW 12.7 mph - N/A   Clear
3:53 PM 73.9 °F 43.0 °F 33% 30.17 in 10.0 miles NW 13.8 mph - N/A   Clear
4:53 PM 73.0 °F 39.9 °F 30% 30.16 in 10.0 miles NW 15.0 mph - N/A   Clear
5:53 PM 71.1 °F 41.0 °F 34% 30.16 in 10.0 miles NW 12.7 mph - N/A   Clear
6:53 PM 68.0 °F 42.1 °F 39% 30.16 in 10.0 miles NW 11.5 mph - N/A   Clear
7:53 PM 64.0 °F 45.0 °F 50% 30.17 in 10.0 miles NW 11.5 mph - N/A   Clear
8:53 PM 63.0 °F 46.9 °F 56% 30.17 in 10.0 miles NW 8.1 mph - N/A   Clear
9:53 PM 62.1 °F 50.0 °F 65% 30.18 in 10.0 miles NNW 6.9 mph - N/A   Clear
10:53 PM 61.0 °F 51.1 °F 70% 30.19 in 10.0 miles NNW 6.9 mph - N/A   Clear
11:53 PM 59.0 °F 52.0 °F 78% 30.18 in 10.0 miles NNW 5.8 mph - N/A   Clear
ADVERTISEMENT
Enter city or zip code to search weather conditions:


  • 490 First Avenue South
  • St. Petersburg, FL 33701
  • 727-893-8111